Temperature
-11 -11 -11 -11 -10 -10 -10 -10 -9 -8 -7 -5 -5 -5 -5 -4 -3 -3 -1 0 2 3 5 6 7 9 10 11 12 13 13 14 14 14 14 14 14 14
-11 -10 -10 -10 -10 -10 -9 -9 -9 -9 -8 -7 -6 -5 -5 -4 -4 -3 -1 -0 2 3 5 6 7 8 9 10 11 12 13 13 14 14 14 14 14 14
-11 -11 -10 -10 -10 -10 -9 -9 -9 -9 -8 -7 -7 -6 -6 -5 -4 -3 -2 -0 1 3 4 5 7 8 9 10 11 11 12 12 13 13 13 14 14 14
-11 -11 -11 -11 -10 -10 -10 -9 -9 -9 -9 -8 -7 -7 -6 -5 -4 -3 -1 -0 1 2 4 5 6 7 8 9 10 11 11 12 12 12 13 13 13 13
-12 -12 -11 -11 -11 -10 -10 -10 -10 -9 -9 -9 -8 -7 -6 -5 -4 -3 -2 -0 1 2 3 5 6 7 8 9 10 11 11 12 12 12 12 12 12 13
-12 -12 -12 -12 -11 -11 -10 -10 -10 -10 -9 -9 -8 -8 -7 -6 -5 -3 -2 -1 1 2 3 4 5 7 7 8 9 10 11 12 12 12 12 12 12 12
-12 -12 -12 -12 -11 -11 -11 -11 -11 -10 -10 -9 -9 -8 -8 -7 -6 -4 -2 -1 1 2 3 4 5 6 7 8 9 10 11 11 12 12 12 12 12 12
-12 -13 -12 -12 -12 -11 -11 -11 -11 -11 -11 -10 -10 -10 -9 -8 -7 -5 -4 -1 1 2 3 4 5 6 7 8 9 10 11 11 12 12 12 12 12 12
-12 -13 -12 -12 -12 -11 -12 -12 -12 -12 -11 -11 -11 -11 -10 -9 -8 -6 -4 -3 -0 2 3 4 5 6 7 8 8 9 10 11 12 12 12 12 11 12
-12 -13 -13 -12 -12 -11 -12 -12 -12 -12 -12 -11 -11 -11 -10 -9 -8 -7 -5 -3 -1 1 2 4 5 6 6 7 8 9 10 11 11 11 12 11 11 11
-12 -12 -13 -12 -12 -12 -12 -12 -12 -12 -11 -11 -11 -11 -10 -9 -8 -6 -5 -3 -1 1 2 3 4 5 6 7 8 9 10 10 11 11 11 11 11 11
-12 -12 -13 -13 -13 -13 -13 -13 -12 -12 -11 -10 -10 -10 -9 -8 -7 -6 -5 -3 -2 0 2 3 4 5 6 6 7 8 9 10 10 11 11 11 11 11
-12 -12 -13 -13 -13 -13 -13 -13 -13 -12 -11 -11 -11 -10 -10 -9 -7 -6 -5 -3 -2 -1 1 2 3 5 6 6 7 8 9 9 10 10 11 11 11 11
-12 -13 -13 -13 -14 -14 -14 -13 -13 -12 -12 -12 -11 -11 -10 -9 -7 -6 -4 -3 -2 -1 0 1 3 4 5 6 6 7 8 9 9 10 10 10 10 10
-12 -13 -13 -14 -13 -13 -14 -13 -13 -12 -12 -12 -12 -12 -11 -9 -7 -6 -4 -3 -2 -1 -0 1 2 3 4 5 6 7 7 8 9 9 10 10 10 10
-12 -13 -13 -13 -13 -13 -13 -13 -13 -13 -13 -13 -12 -12 -10 -9 -8 -6 -5 -3 -2 -1 -0 1 2 3 4 5 6 7 7 8 8 9 9 9 9 10
-12 -12 -13 -13 -13 -13 -13 -13 -13 -13 -13 -13 -12 -11 -10 -9 -8 -7 -5 -4 -3 -2 -1 0 1 2 3 4 5 6 7 7 8 8 8 8 8 9
-12 -12 -13 -13 -13 -14 -14 -14 -14 -13 -13 -13 -13 -12 -11 -10 -9 -7 -6 -5 -3 -2 -1 -0 1 2 3 4 4 5 6 6 7 7 8 8 7 7
-11 -12 -12 -13 -13 -13 -13 -14 -14 -13 -13 -13 -13 -12 -12 -11 -10 -9 -7 -5 -4 -3 -1 -1 0 1 2 2 3 4 5 5 6 6 6 7 6 5
-11 -12 -12 -12 -13 -13 -13 -13 -13 -13 -13 -13 -13 -12 -12 -11 -11 -10 -8 -7 -5 -3 -2 -1 -0 1 2 2 2 2 3 4 5 5 4 4 4 3
-11 -11 -11 -12 -12 -12 -12 -13 -13 -13 -13 -13 -13 -12 -12 -12 -11 -11 -10 -8 -6 -4 -3 -2 -1 -0 1 1 1 1 2 2 4 5 4 3 2 2
-11 -11 -11 -11 -11 -12 -12 -12 -12 -13 -13 -13 -13 -13 -13 -12 -12 -11 -10 -9 -8 -6 -4 -3 -2 -1 -0 1 0 0 0 1 1 2 3 4 3 1
-10 -10 -11 -11 -11 -11 -11 -12 -12 -13 -13 -13 -13 -13 -13 -12 -12 -12 -11 -10 -9 -7 -6 -4 -3 -2 -1 -1 -1 -1 -1 -1 -0 0 1 1 2 3
Wind_Speed
12 13 11 11 10 10 10 11 11 13 14 14 11 10 9 10 13 13 13 16 17 18 17 14 12 10 8 8 8 12 19 23 27 30 31 33 34 34
11 12 12 10 10 9 9 9 10 11 13 13 13 14 13 12 15 14 14 18 19 19 18 15 13 9 8 8 10 12 15 19 24 28 31 31 31 30
14 14 14 13 11 10 9 9 9 10 12 14 13 14 15 14 13 12 12 12 11 16 17 16 13 10 8 8 10 13 15 17 21 25 27 27 28 28
15 15 16 14 15 12 11 11 10 11 12 15 14 13 14 14 13 13 11 10 10 13 15 15 13 11 10 9 11 14 17 17 19 23 24 24 24 25
14 15 15 16 16 14 14 13 12 12 11 12 13 12 11 11 12 11 11 10 10 11 13 14 14 11 10 10 12 15 18 20 21 22 23 23 23 24
13 14 15 15 17 16 14 14 14 13 12 11 11 10 10 10 9 8 7 7 8 8 10 10 11 11 10 11 13 15 19 22 24 25 26 25 24 24
13 14 15 18 21 17 14 14 14 12 12 11 10 10 9 9 8 7 8 8 7 5 6 8 8 7 7 9 12 14 19 23 25 25 25 26 26 25
13 14 16 16 21 20 20 19 17 14 13 11 10 11 11 11 10 9 8 6 4 2 4 6 6 7 5 5 9 13 18 21 24 26 26 26 25 25
13 14 14 15 20 15 16 18 16 17 15 12 11 11 12 12 12 11 9 7 6 6 4 5 6 6 4 4 8 13 16 19 22 24 25 26 26 26
12 14 15 17 18 19 15 14 14 12 13 10 10 11 11 12 11 11 11 10 10 8 5 3 4 4 3 2 6 12 15 17 19 22 25 26 26 26
11 12 15 16 22 24 17 16 16 13 13 16 15 13 14 14 11 8 7 6 4 2 1 2 1 2 3 2 3 9 13 16 18 20 23 25 26 25
11 11 15 19 23 23 16 15 16 16 14 14 13 12 10 10 11 7 6 5 4 3 5 4 1 1 2 1 1 4 8 12 17 19 22 24 27 19
10 10 11 21 22 21 18 15 18 17 13 12 11 10 9 8 8 7 6 5 5 3 5 6 3 1 2 1 0 3 6 7 9 12 19 25 27 20
9 10 12 19 20 19 16 20 21 17 11 11 10 10 10 10 10 10 8 7 8 9 9 7 3 2 1 2 1 2 4 6 7 8 11 19 22 22
8 12 15 17 16 14 18 21 17 12 12 11 11 11 10 11 10 9 9 7 7 8 7 6 5 4 2 1 1 2 3 4 6 9 9 12 12 17
8 10 12 13 12 14 14 13 12 12 12 11 12 11 11 11 10 10 8 8 5 3 3 4 4 3 2 2 1 3 4 4 6 10 10 9 9 12
10 7 8 9 10 10 11 11 11 12 12 12 12 12 12 11 11 10 8 7 5 5 4 3 3 2 5 6 2 4 7 8 9 12 13 12 9 10
10 8 8 9 9 10 10 11 11 12 12 12 12 12 12 12 12 11 10 8 7 6 5 4 2 1 3 7 12 4 7 9 9 12 15 16 12 9
8 8 8 8 8 8 9 10 10 11 11 12 12 12 12 12 11 11 11 10 8 7 6 5 4 1 3 3 8 13 6 10 11 12 13 15 14 11
9 9 9 8 8 7 8 8 9 10 11 11 12 12 12 12 12 12 11 11 9 7 6 6 5 4 3 4 4 7 13 8 13 16 16 17 16 21
9 9 9 8 7 7 6 7 8 8 10 11 11 12 12 12 11 11 11 14 10 8 7 6 6 5 3 6 8 7 10 17 13 14 19 20 19 15
10 10 9 8 7 6 6 6 6 7 9 9 10 11 11 11 12 12 11 10 9 8 7 6 6 4 4 8 11 11 13 15 20 26 22 13 10 11
10 10 10 8 7 6 5 5 5 6 7 8 9 10 10 10 11 11 11 10 9 9 8 6 6 6 8 10 13 14 17 15 14 15 16 24 30 35
Wind_Direction
306 300 293 287 283 279 277 278 284 294 299 302 304 301 302 295 291 287 283 281 283 284 280 273 263 264 274 262 247 223 212 203 196 192 192 196 197 197
325 317 311 307 305 300 296 290 287 287 290 295 300 299 300 294 288 284 279 279 275 273 272 265 254 248 260 262 238 218 205 200 189 186 188 191 193 193
339 336 331 324 323 318 312 307 301 297 295 298 300 301 301 297 291 282 276 268 263 259 260 257 247 236 243 256 238 213 197 195 187 182 183 186 189 188
338 338 337 336 334 330 326 320 316 309 302 301 302 304 304 302 297 288 275 263 256 252 250 249 243 232 233 246 241 213 193 188 184 179 179 182 184 183
335 335 333 333 334 335 332 329 323 317 308 302 304 306 306 308 306 292 278 262 256 248 242 242 236 230 229 239 240 213 191 184 184 180 176 178 181 181
334 333 331 331 332 333 334 333 329 322 315 310 308 312 314 318 313 304 292 279 263 249 235 230 224 226 227 234 234 212 194 187 184 181 177 174 175 177
336 334 331 333 334 336 337 335 332 327 322 318 316 317 323 328 324 314 304 298 269 247 234 220 212 214 217 231 232 209 195 188 183 180 176 172 171 174
338 336 333 333 335 336 335 336 335 330 328 325 318 319 320 322 322 318 314 306 272 292 262 224 205 205 209 220 219 199 190 185 180 176 173 171 171 172
335 335 336 335 337 334 337 337 331 330 330 327 316 316 315 319 318 316 316 309 295 314 300 232 205 204 202 223 210 191 185 181 177 174 172 170 170 171
330 333 335 336 336 345 342 335 331 329 328 323 314 313 312 314 313 307 302 298 284 270 254 238 200 193 181 197 207 192 181 177 174 172 171 170 168 169
328 333 336 336 341 349 346 338 335 336 335 330 327 323 323 322 326 319 313 303 287 283 282 261 203 170 161 184 204 191 179 173 172 171 169 167 165 164
331 336 337 342 347 350 348 342 340 340 336 333 331 330 330 327 333 329 314 303 300 316 357 341 323 139 129 99 191 182 176 169 167 168 167 164 162 165
335 338 339 345 348 350 351 347 345 343 336 333 333 337 339 337 334 328 309 288 288 296 347 348 334 8 96 109 132 167 161 158 164 167 166 164 164 165
335 338 342 346 348 349 352 352 352 349 343 341 342 346 346 343 336 327 314 288 265 268 291 309 314 344 52 113 129 126 131 143 148 155 164 163 161 154
337 339 342 347 348 348 351 355 355 352 350 348 347 346 343 339 336 334 328 312 277 260 267 270 278 307 344 70 115 121 103 106 136 141 149 158 157 151
341 337 342 345 349 351 353 355 355 355 354 349 347 345 346 348 351 350 343 339 327 314 294 298 296 305 352 30 93 118 110 118 126 124 121 121 131 140
345 343 347 349 352 354 355 356 356 356 356 353 353 353 353 355 356 355 352 349 353 351 348 348 355 56 60 44 85 108 116 113 118 119 113 103 90 115
355 351 351 350 351 351 352 353 355 357 355 353 356 357 356 356 356 357 359 359 356 352 350 345 338 1 51 48 29 86 109 111 112 114 118 114 98 87
356 352 349 346 345 345 348 350 352 353 352 354 358 359 357 358 360 1 1 1 358 354 350 347 346 0 103 77 20 18 91 118 114 109 111 115 112 103
352 348 345 342 340 340 343 346 348 351 355 355 358 359 360 0 2 2 2 1 357 356 1 7 9 13 74 104 84 33 30 100 122 116 110 105 101 101
345 342 341 338 335 334 335 339 344 350 354 354 359 360 360 1 3 2 1 1 5 6 8 5 355 5 63 92 93 70 51 52 85 121 127 122 119 116
339 337 336 334 332 329 328 332 338 348 355 357 359 360 0 1 1 1 3 3 4 4 4 5 5 25 65 104 107 100 89 79 67 67 68 89 126 138
333 332 331 330 329 325 321 322 329 344 354 355 356 359 360 2 2 3 4 7 8 10 14 27 46 65 83 104 110 108 102 98 93 83 71 80 94 109
Height
1420 1414 1408 1404 1400 1396 1393 1390 1387 1380 1374 1371 1369 1366 1364 1362 1360 1359 1359 1360 1362 1364 1368 1372 1377 1382 1388 1393 1399 1406 1414 1422 1431 1441 1451 1460 1470 1478
1420 1414 1408 1403 1398 1394 1390 1387 1383 1379 1373 1368 1365 1362 1360 1357 1355 1354 1354 1354 1356 1358 1362 1367 1372 1377 1382 1388 1394 1400 1407 1414 1422 1432 1443 1453 1462 1471
1420 1414 1408 1402 1397 1392 1388 1384 1380 1376 1371 1365 1362 1358 1355 1352 1350 1349 1349 1349 1351 1353 1357 1361 1366 1371 1377 1382 1388 1394 1401 1407 1414 1423 1434 1445 1455 1464
1419 1413 1407 1402 1396 1391 1386 1382 1377 1373 1369 1362 1357 1353 1350 1347 1344 1343 1344 1345 1346 1349 1351 1355 1360 1366 1372 1376 1382 1389 1395 1402 1407 1416 1426 1437 1447 1456
1418 1412 1406 1401 1395 1390 1385 1380 1374 1370 1365 1360 1354 1350 1345 1343 1340 1339 1339 1340 1342 1344 1346 1350 1355 1361 1367 1372 1377 1383 1390 1397 1404 1410 1419 1430 1441 1450
1417 1411 1405 1400 1395 1389 1383 1378 1372 1367 1362 1357 1352 1347 1343 1340 1338 1336 1336 1336 1338 1340 1343 1346 1351 1356 1362 1368 1373 1379 1386 1394 1400 1408 1416 1425 1434 1445
1415 1409 1404 1399 1393 1388 1382 1376 1370 1364 1359 1354 1350 1345 1341 1337 1335 1333 1333 1333 1334 1336 1339 1343 1347 1352 1357 1363 1368 1374 1381 1389 1396 1404 1412 1421 1430 1440
1414 1408 1402 1397 1391 1385 1379 1373 1368 1362 1357 1352 1348 1344 1340 1336 1334 1332 1331 1331 1332 1334 1335 1339 1343 1348 1353 1359 1364 1370 1377 1384 1392 1400 1409 1418 1426 1436
1412 1406 1401 1395 1389 1382 1376 1370 1364 1360 1355 1351 1346 1342 1338 1335 1332 1330 1329 1328 1328 1329 1333 1335 1339 1343 1349 1355 1359 1366 1373 1380 1388 1396 1405 1414 1423 1432
1411 1405 1400 1394 1387 1381 1373 1367 1362 1356 1351 1347 1343 1339 1335 1332 1330 1328 1327 1326 1326 1328 1330 1333 1336 1340 1345 1350 1356 1363 1369 1376 1384 1392 1401 1410 1419 1429
1409 1404 1398 1392 1386 1379 1372 1366 1360 1354 1348 1343 1339 1335 1332 1329 1327 1326 1326 1326 1326 1327 1329 1331 1334 1338 1343 1348 1353 1359 1366 1372 1380 1388 1397 1406 1416 1426
1407 1402 1397 1391 1385 1378 1371 1365 1358 1352 1345 1340 1336 1332 1329 1326 1325 1324 1324 1324 1324 1326 1327 1330 1332 1337 1341 1345 1351 1356 1362 1369 1377 1385 1393 1402 1413 1423
1405 1400 1395 1390 1383 1377 1371 1365 1359 1352 1345 1339 1334 1331 1327 1325 1323 1322 1322 1323 1324 1324 1326 1329 1331 1335 1338 1343 1348 1353 1360 1366 1374 1382 1391 1400 1409 1418
1404 1399 1394 1388 1382 1376 1371 1365 1358 1352 1345 1340 1335 1330 1326 1323 1322 1321 1321 1322 1323 1325 1326 1328 1330 1334 1338 1342 1346 1352 1358 1364 1371 1379 1388 1398 1407 1415
1403 1398 1393 1387 1382 1376 1371 1365 1358 1352 1347 1341 1336 1331 1327 1324 1322 1321 1321 1322 1323 1325 1326 1329 1331 1333 1337 1340 1344 1349 1355 1362 1370 1378 1386 1395 1403 1411
1402 1397 1392 1387 1383 1378 1372 1366 1360 1356 1350 1344 1339 1334 1329 1325 1323 1321 1321 1322 1323 1325 1327 1329 1332 1335 1338 1340 1344 1349 1354 1360 1368 1376 1383 1392 1401 1409
1403 1398 1393 1389 1384 1379 1374 1369 1363 1358 1353 1347 1342 1336 1331 1328 1325 1323 1323 1323 1325 1327 1329 1331 1334 1336 1338 1341 1345 1349 1354 1360 1367 1373 1381 1388 1398 1406
1405 1400 1395 1390 1386 1381 1377 1372 1367 1362 1356 1351 1346 1341 1336 1331 1328 1326 1325 1326 1327 1328 1330 1332 1335 1337 1339 1343 1346 1350 1354 1359 1367 1373 1379 1386 1396 1405
1406 1401 1397 1392 1388 1384 1380 1375 1371 1366 1360 1355 1350 1345 1340 1336 1333 1330 1329 1328 1329 1330 1331 1333 1336 1338 1340 1343 1348 1352 1356 1361 1367 1374 1381 1388 1396 1406
1407 1403 1399 1394 1390 1386 1382 1378 1374 1370 1365 1360 1355 1350 1345 1341 1338 1335 1333 1331 1331 1332 1333 1335 1337 1339 1342 1345 1349 1355 1360 1364 1368 1374 1381 1389 1398 1409
1409 1405 1401 1396 1392 1388 1384 1381 1377 1373 1369 1364 1360 1355 1350 1346 1343 1340 1338 1336 1335 1335 1336 1337 1339 1342 1345 1348 1352 1358 1364 1368 1372 1376 1383 1390 1399 1411
1410 1406 1402 1398 1394 1390 1386 1383 1380 1377 1373 1369 1365 1361 1356 1352 1348 1345 1342 1340 1339 1338 1339 1340 1342 1344 1347 1350 1354 1359 1366 1372 1376 1381 1388 1394 1398 1408
1411 1407 1403 1399 1395 1392 1388 1385 1382 1379 1376 1373 1370 1366 1362 1358 1354 1350 1348 1345 1344 1342 1342 1343 1346 1348 1351 1353 1357 1362 1368 1375 1380 1386 1393 1398 1403 1411